Palm Springs, CA

12:34 AM PDT on September 26, 2016 (GMT -0700)
Palm Springs International

Weather History for KPSP - May, 2013

Change the Weather History Date:

Tuesday, May 21, 2013

  Actual Average Record
Temperature  
Mean Temperature 88 °F 80 °F  
Max Temperature 102 °F 95 °F 111 °F (1967)
Min Temperature 74 °F 66 °F 48 °F (1975)
Degree Days  
Heating Degree Days 0 0  
Month to date heating degree days 0 0  
Since 1 July heating degree days 760 872  
Cooling Degree Days 23 15  
Month to date cooling degree days 347 271  
Year to date cooling degree days 877 591  
Growing Degree Days 38 (Base 50)    
Moisture  
Dew Point 35 °F    
Average Humidity 21    
Maximum Humidity 35    
Minimum Humidity 7    
Precipitation  
Precipitation 0.00 in 0.00 in 0.04 in (1933)
Month to date precipitation T 0.11  
Year to date precipitation 0.97 2.86  
Since 1 July precipitation 2.19  
Snow  
Snow 0.00 in - - ()
Month to date snowfall 0.0  
Year to date snowfall 0.0  
Snow Depth 0.00 in    
Sea Level Pressure  
Sea Level Pressure 29.74 in    
Wind  
Wind Speed 6 mph (NNW)    
Max Wind Speed 13 mph    
Max Gust Speed 17 mph    
Visibility 10 miles    
Events      
T = Trace of Precipitation, MM = Missing Value Source: NWS Daily Summary

Daily Weather History Graph

Daily Weather History Graph

Search for Another Location

Airport or City:

Trip Planner

Search our weather history database for the weather conditions in past years. The results will help you decide how hot, cold, wet, or windy it might be!

Date:

Astronomy

May. 21, 2013 Rise Set
Actual Time 5:40 AM PDT 7:44 PM PDT
Civil Twilight 5:12 AM PDT 8:12 PM PDT
Nautical Twilight 4:38 AM PDT 8:46 PM PDT
Astronomical Twilight 4:02 AM PDT 9:23 PM PDT
Moon 4:12 PM PDT (5/21) 3:00 AM PDT (5/21)
Length of Visible Light 14h 59m
Length of Day
14h 03m
Waxing Gibbous, 85% of the Moon is Illuminated
May 21
Waxing Gibbous
May 24
Full
May 31
Last Quarter
Jun 8
New
Jun 16
First Quarter

Hourly Weather History & Observations

Time (PDT) Temp. Dew Point Humidity Pressure Visibility Wind Dir Wind Speed Gust Speed Precip Events Conditions
12:53 AM 82.0 °F 43.0 °F 25% 29.83 in 10.0 mi NW 9.2 mph - N/A   Clear
1:53 AM 81.0 °F 41.0 °F 24% 29.82 in 10.0 mi NW 8.1 mph - N/A   Clear
2:53 AM 80.1 °F 42.1 °F 26% 29.81 in 10.0 mi NNW 9.2 mph - N/A   Clear
3:53 AM 78.1 °F 41.0 °F 27% 29.81 in 10.0 mi NNW 9.2 mph - N/A   Clear
4:53 AM 77.0 °F 39.9 °F 26% 29.81 in 10.0 mi NW 6.9 mph - N/A   Clear
5:53 AM 75.0 °F 39.0 °F 27% 29.81 in 10.0 mi NNW 8.1 mph - N/A   Clear
6:53 AM 75.9 °F 39.0 °F 26% 29.83 in 10.0 mi NNW 8.1 mph - N/A   Clear
7:53 AM 79.0 °F 48.0 °F 34% 29.83 in 10.0 mi Calm Calm - N/A   Clear
8:53 AM 87.1 °F 32.0 °F 14% 29.83 in 10.0 mi Calm Calm - N/A   Clear
9:53 AM 91.0 °F 28.9 °F 11% 29.82 in 10.0 mi East 3.5 mph - N/A   Clear
10:53 AM 93.9 °F 27.0 °F 9% 29.80 in 10.0 mi ESE 5.8 mph - N/A   Scattered Clouds
11:53 AM 96.1 °F 24.1 °F 8% 29.79 in 10.0 mi SSE 6.9 mph - N/A   Clear
12:53 PM 98.1 °F 26.1 °F 8% 29.76 in 10.0 mi Variable 5.8 mph - N/A   Clear
1:53 PM 100.0 °F 26.1 °F 7% 29.74 in 10.0 mi Variable 4.6 mph - N/A   Clear
2:53 PM 100.9 °F 27.0 °F 7% 29.71 in 10.0 mi Variable 3.5 mph - N/A   Clear
3:53 PM 102.0 °F 30.0 °F 8% 29.68 in 10.0 mi SE 11.5 mph - N/A   Clear
4:53 PM 100.9 °F 30.9 °F 9% 29.65 in 10.0 mi ESE 9.2 mph 16.1 mph N/A   Mostly Cloudy
5:50 PM 100.4 °F 37.4 °F 11% 29.64 in 10.0 mi North 11.5 mph 27.6 mph N/A   Mostly Cloudy
5:53 PM 99.0 °F 39.0 °F 13% 29.63 in 10.0 mi NW 13.8 mph 24.2 mph N/A   Mostly Cloudy
6:53 PM 97.0 °F 36.0 °F 12% 29.63 in 10.0 mi NW 18.4 mph 24.2 mph N/A   Scattered Clouds
7:53 PM 93.0 °F 32.0 °F 12% 29.64 in 10.0 mi NW 9.2 mph 16.1 mph N/A   Scattered Clouds
8:53 PM 90.0 °F 36.0 °F 15% 29.66 in 10.0 mi North 10.4 mph 21.9 mph N/A   Clear
9:53 PM 88.0 °F 35.1 °F 15% 29.68 in 10.0 mi Calm Calm - N/A   Clear
10:53 PM 82.9 °F 36.0 °F 19% 29.67 in 10.0 mi SSE 5.8 mph - N/A   Clear
11:53 PM 82.0 °F 37.9 °F 21% 29.67 in 10.0 mi West 3.5 mph - N/A   Clear